Home > Weather > Evansville > Past weeks

Flag for USA Past Weather in Evansville, Indiana, USA — Yesterday and Last 2 Weeks

Now
77 °F

Fog.


Feels Like: 78 °F
Forecast: 76 / 92 °F
Wind: No wind

Location: Evansville Regional Airport

Current Time: Jul 24, 2016 at 5:47:20 AM

Latest Report: Jul 24, 2016 at 4:54 AM


Visibility: 4 mi

Pressure: 29.93 "Hg

Humidity: 94%

Dew Point: 75 °F

Location of EvansvilleLocation

Past Weather in Evansville — Graph

°F

Evansville Temperature Yesterday

Maximum temperature yesterday: 92 °F (at 3:54 PM)
Minimum temperature yesterday: 73 °F (at 5:04 AM)
Average temperature yesterday: 82 °F

High & Low Weather Summary for the Past Weeks

 TemperatureHumidityPressure
High92 °F (Jul 19, 1:54 PM)97% (Jul 12, 10:54 AM)30.24 "Hg (Jul 12, 10:54 AM)
Low66 °F (Jul 10, 5:54 AM)45% (Jul 11, 2:54 PM)29.89 "Hg (Jul 14, 3:54 PM)
Average79 °F78%30.05 "Hg
* Reported Jul 9 4:54 AM — Jul 24 4:54 AM, Evansville, Weather by CustomWeather, © 2016

Note: Actual official high and low records may vary slightly from our data, if they occured in-between our weather recording intervals... More about our weather records

Advertising

Evansville Weather History for the Previous 24 Hours

Scroll right to see more
 ConditionsComfort  
Time TempWeatherWind HumidityBarometerVisibility
4:54 AM
Sun, Jul 24
77 °FFog.No wind94%29.93 "Hg4 mi
3:54 AM78 °FFog.No wind90%29.95 "Hg4 mi
2:54 AM78 °FFog.No wind93%29.95 "Hg4 mi
1:54 AM77 °FFog.No wind94%29.95 "Hg4 mi
12:54 AM78 °FFog.No wind93%29.95 "Hg5 mi
11:54 PM
Sat, Jul 23
80 °FFog.No wind87%29.94 "Hg6 mi
10:54 PM80 °FClear.No wind87%29.96 "Hg7 mi
9:54 PM82 °FClear.No wind82%29.97 "Hg8 mi
8:54 PM85 °FClear.No wind75%29.94 "Hg10 mi
7:54 PM86 °FSunny.No wind72%29.92 "Hg9 mi
6:54 PM89 °FSunny.No wind65%29.91 "Hg10 mi
5:54 PM91 °FSunny.6 mph60%29.90 "Hg10 mi
4:54 PM91 °FPassing clouds.5 mph61%29.92 "Hg10 mi
3:54 PM92 °FBroken clouds.5 mph62%29.94 "Hg10 mi
2:54 PM90 °FBroken clouds.3 mph61%29.96 "Hg10 mi
1:54 PM89 °FPartly sunny.3 mph63%29.97 "Hg10 mi
12:54 PM87 °FPartly sunny.No wind67%29.98 "Hg10 mi
11:54 AM87 °FMostly cloudy.No wind67%29.98 "Hg10 mi
10:54 AM86 °FPassing clouds.7 mph67%29.98 "Hg10 mi
9:54 AM83 °FSunny.6 mph74%29.99 "Hg10 mi
8:54 AM80 °FSunny.8 mph81%30.00 "Hg10 mi
7:54 AM77 °FSunny.No wind88%30.01 "Hg10 mi
7:03 AM75 °FFog.No wind90%30.01 "Hg6 mi
6:54 AM75 °FFog.No wind90%29.99 "Hg5 mi
5:54 AM73 °FFog.No wind94%29.99 "Hg2 mi
5:04 AM73 °FFog.No wind97%30.00 "Hg1 mi
Weather by CustomWeather, © 2016

See weather overviewHow to use our weather pages